Location: Avoca
(45.7167°N, 74.7000°W)
Time: 18:30:05
(UTC+00:00)

Tiangong - Pass Details

Date: 03 December 2022
Orbit: 383 x 386 km, 41.5° (Epoch: 30 January)

Event Time Altitude Azimuth Distance (km) Brightness Sun altitude
Rises 21:55:51 0° 230° (SW) 2,248 3.6 -7.0°
Reaches altitude 10° 21:58:11 10° 214° (SW) 1,399 1.7 -7.4°
Maximum altitude 22:00:42 22° 161° (SSE) 896 -0.2 -7.8°
Drops below altitude 10° 22:03:15 10° 108° (ESE) 1,407 0.3 -8.2°
Enters shadow 22:03:52 - 102° (ESE) 1,619 0.5 -8.3°
